Regional Weather Roundup
Issued by NWS

Home | Current Version | Previous Version | Text Only | Print | Product List | Glossary On
Versions: 1 2 3 4 5 6 7 8 9 10 11 12 13 14 15 16 17 18 19 20 21 22 23 24 25 26 27 28 29 30 31 32 33 34 35 36 37 38 39 40 41 42 43 44 45 46 47 48 49 50
000
ASUS46 KSEW 210710
RWRWA

WASHINGTON REGIONAL WEATHER ROUNDUP
NATIONAL WEATHER SERVICE SEATTLE WA
1100 PM PST SAT DEC 20 2014

NOTE:"FAIR" INDICATES FEW OR NO CLOUDS BELOW 12,000 FEET WITH NO
SIGNIFICANT WEATHER AND/OR OBSTRUCTIONS TO VISIBILITY.

WAZ505-507>509-210800-
SEATTLE, TACOMA, EVERETT, AND VICINITY

CITY           SKY/WX    TMP DP  RH WIND       PRES   REMARKS
EVERETT        MOCLDY    53  49  86 SW15      29.49R
BOEING FIELD   MOCLDY    58  49  72 S14G26    29.50R
RENTON         MOCLDY    56  51  84 S14       29.51R
SEATAC AIRPORT CLOUDY    54  50  86 SW24G35   29.52R
JBLM-MCCHORD   MOCLDY    54  54 100 SW15G23   29.56R
PUYALLUP       NOT AVBL
JBLM-FT LEWIS  CLOUDY    54  53  99 MISG      29.56R
TACOMA NARROWS MOCLDY    53  50  89 SW16G30   29.53R
$$

WAZ001-503-506-510-514-515-210800-
NORTH INTERIOR

CITY           SKY/WX    TMP DP  RH WIND       PRES   REMARKS
BELLINGHAM     CLOUDY    56  48  74 S15G38    29.38S
FRIDAY HARBOR  CLOUDY    53  49  86 SW18G36   29.43R
EASTSOUND      PTCLDY    55  50  82 SW25G38   29.37R
PORT ANGELES   CLOUDY    54  47  77 W18G28    29.46R
NAS WHIDBEY    CLOUDY    54  50  86 S10G16    29.45R
BURLINGTON     CLOUDY    46  46 100 NW3       29.45R
$$

WAZ020-022-039-040-504-511-512-210800-
SOUTHWEST INTERIOR

CITY           SKY/WX    TMP DP  RH WIND       PRES   REMARKS
SHELTON        RAIN      53  51  93 SW17G31   29.54R FOG
OLYMPIA        LGT RAIN  54  50  86 SW16G26   29.58R
CHEHALIS       CLOUDY    55  54  94 W8G15     29.62S
KELSO          CLOUDY    54  52  94 SE5       29.69F
VANCOUVER      CLOUDY    58  53  84 CALM      29.69R
SCAPPOOSE, OR  CLOUDY    52  51  97 CALM      29.66F FOG
PORTLAND, OR   LGT RAIN  58  55  90 SW13G18   29.70R
$$

WAZ021-516-517-210800-
WASHINGTON COAST

CITY           SKY/WX    TMP DP  RH WIND       PRES   REMARKS
FORKS          CLOUDY    52  49  89 W13       29.55R
HOQUIAM        LGT RAIN  54  53  97 SW24G33   29.59R FOG
ASTORIA, OR    LGT RAIN  56  53  90 SW21G26   29.68R
$$

WAZ019-023-024-040-518-519-210800-
CASCADE MOUNTAINS AND COLUMBIA GORGE

CITY           SKY/WX    TMP DP  RH WIND       PRES   REMARKS
STAMPEDE PASS  NOT AVBL
TROUTDALE, OR  CLOUDY    59  56  89 SW18G32   29.67R
THE DALLES, OR LGT RAIN  43  42  97 CALM      29.63S FOG
$$

WAZ026-027-041>044-520-521-210800-
EAST SLOPES

CITY           SKY/WX    TMP DP  RH WIND       PRES   REMARKS
OMAK           LGT RAIN  34  34 100 S6        29.46F VSB 3/4
WENATCHEE      RAIN      35  33  92 CALM      29.45F VSB 1
ELLENSBURG     RAIN      40  37  89 NW5       29.47F VSB 1/4
YAKIMA         LGT RAIN  41  39  93 CALM      29.51F FOG
$$

WAZ028-034-035-210800-
COLUMBIA BASIN

CITY           SKY/WX    TMP DP  RH WIND       PRES   REMARKS
EPHRATA        LGT RAIN  39  39 100 S13       29.46S
MOSES LAKE     MOCLDY    41  40  96 S9        29.47F FOG
PASCO          MOCLDY    53  48  83 SW12      29.53F
HERMISTON, OR  CLOUDY    54  47  77 SW13G20   29.56F
$$

WAZ036>038-210800-
NORTHEAST WASHINGTON

CITY           SKY/WX    TMP DP  RH WIND       PRES   REMARKS
SPOKANE GEIGER CLOUDY    45  44  97 S22G29    29.48F
SPOKANE FELTS  LGT RAIN  45  42  89 SW8       29.50F
FAIRCHILD AFB  DRIZZLE   44  44 100 S21G28    29.48F
COEURDALENE,ID CLOUDY    39  36  87 S13G18    29.51F
DEER PARK      CLOUDY    41  40  96 S14       29.49F
$$

WAZ029>033-210800-
SOUTHEAST WASHINGTON

CITY           SKY/WX    TMP DP  RH WIND       PRES   REMARKS
PULLMAN        LGT RAIN  42  39  89 SE15      29.58F
LEWISTON, ID   CLOUDY    47  40  76 S18G29    29.58F
WALLA WALLA    CLOUDY    57  46  66 S23       29.58F
PENDLETON, OR  CLOUDY    56  45  66 SW24G30   29.60F
$$



USA.gov is the U.S. government's official web portal to all federal, state and local government web resources and services.